Content
SEND FEEDBACK

Daily
Averages
Monthly
Summary
Switzerland

GENEVA, SWITZERLAND


Home > Europe > Switzerland
Elevation: 1364 feet     Latitude: 46 15N     Longitude: 006 08E

WEATHER
 
SELECT A DAY
Number of Records: 306,145;   Date Range: 7/1/96 - 9/3/14
 
SHARE

PRINT THIS DATA

[ ← Previous Day ]
WEATHER ALMANAC - APRIL 10, 2013
[ Next Day → ]
[ °C ]   °F
Weather ElementAverageHighLow
Temperature52.1 °F59 °F (2:50 pm)44 °F (4:00 am)
Dewpoint36.8 °F41 °F (7:50 am)31 °F (3:00 pm)
Humidity55.1 %87 % (7:50 am)22 % (6:00 pm)
Barometer29.89 in29.96 in (8:00 am)29.80 in (12:20 am)
Wind Speed10.1 mph15 mph (2:50 pm)
Weather ElementAverage
Visibility8.3 mi
Wind DirectionSW (223 °)

Weather ElementTotal
Precipitation---
Heating Degree Days13.5 (Base 65)
Growing Degree Days1.5 (Base 50)
Averaged from 66 records on April 10, 2013
WEATHER CONDITIONS BREAKOUT
WIND DIRECTION BREAKOUT
WEATHER BY HOUR - APRIL 10, 2013
[ °C ]   °F
Local TimeTemperatureDewpointHumidityBarometerVisibilityWind DirectionWind SpeedGust SpeedPrecipitationEventsConditions
12:20 AM48.2 °F39.2 °F71 %29.80 in6.2 miSW (230°)9.2 mphScattered Clouds
12:50 AM48.2 °F39.2 °F71 %29.83 in6.2 miSW (230°)11.5 mphRainLight Rain Showers
1:00 AM48.0 °F39.0 °F63 %29.84 inSW (230°)11.5 mph
1:20 AM50.0 °F39.2 °F66 %29.83 in6.2 miSW (220°)11.5 mphScattered Clouds
1:50 AM48.2 °F37.4 °F66 %29.83 in6.2 miSSW (200°)11.5 mphScattered Clouds
2:00 AM49.0 °F35.0 °F48 %29.85 in31.0 miSSW (210°)10.4 mphMostly Cloudy
2:20 AM48.2 °F37.4 °F66 %29.86 in6.2 miWest (260°)8.1 mphRainLight Rain Showers
2:50 AM46.4 °F39.2 °F76 %29.86 in6.2 miWSW (250°)6.9 mphRainLight Rain Showers
3:00 AM45.0 °F39.0 °F71 %29.89 inWSW (250°)5.8 mph
3:50 AM44.6 °F39.2 °F81 %29.86 in6.2 miWSW (250°)5.8 mphScattered Clouds
4:00 AM44.0 °F38.0 °F73 %29.89 inSW (230°)8.1 mph
4:20 AM46.4 °F37.4 °F71 %29.86 in6.2 miWSW (240°)10.4 mphMostly Cloudy
4:50 AM46.4 °F37.4 °F71 %29.86 in6.2 miWSW (240°)12.7 mphScattered Clouds
5:20 AM48.2 °F37.4 °F66 %29.89 in6.2 miSW (230°)13.8 mphMostly Cloudy
5:50 AM46.4 °F37.4 °F71 %29.89 in6.2 miSW (230°)10.4 mphScattered Clouds
6:00 AM45.0 °F36.0 °F62 %29.92 inWSW (240°)10.4 mph
6:20 AM44.6 °F37.4 °F76 %29.89 in6.2 miSouth (190°)6.9 mphScattered Clouds
6:50 AM46.4 °F37.4 °F71 %29.92 in6.2 miWSW (240°)4.6 mphRainLight Rain Showers
7:00 AM44.0 °F38.0 °F73 %29.95 inNW (310°)4.6 mph
7:20 AM44.6 °F39.2 °F81 %29.92 in6.2 miWNW (300°)3.5 mphRainLight Rain Showers
7:50 AM44.6 °F41.0 °F87 %29.92 in6.2 miWSW (250°)3.5 mphRainLight Rain Showers
8:00 AM44.0 °F40.0 °F79 %29.96 in8.0 miWest (260°)4.6 mphRainLight Rain Showers
8:20 AM44.6 °F41.0 °F87 %29.92 in6.2 miWSW (240°)4.6 mphMostly Cloudy
8:50 AM46.4 °F41.0 °F81 %29.92 in6.2 miSW (230°)6.9 mphMostly Cloudy
9:00 AM46.0 °F40.0 °F74 %29.96 inSW (230°)6.9 mph
9:20 AM48.2 °F41.0 °F76 %29.92 in6.2 miSW (220°)6.9 mphMostly Cloudy
9:50 AM50.0 °F39.2 °F66 %29.92 in6.2 miSSW (200°)11.5 mphMostly Cloudy
10:00 AM50.0 °F37.0 °F50 %29.95 inSSW (210°)12.7 mph
10:20 AM51.8 °F39.2 °F62 %29.92 in6.2 miSSW (200°)13.8 mphScattered Clouds
10:50 AM51.8 °F37.4 °F58 %29.95 in6.2 miSSW (210°)11.5 mphScattered Clouds
11:20 AM51.8 °F39.2 °F62 %29.92 in6.2 miSW (220°)13.8 mphScattered Clouds
11:50 AM53.6 °F37.4 °F54 %29.92 in6.2 miSouth (190°)12.7 mphScattered Clouds
12:00 PM53.0 °F36.0 °F41 %29.94 inSSW (210°)13.8 mph
12:20 PM53.6 °F35.6 °F51 %29.92 in6.2 miSSW (210°)13.8 mphScattered Clouds
12:50 PM53.6 °F37.4 °F54 %29.92 in6.2 miSSW (210°)12.7 mphMostly Cloudy
1:00 PM55.0 °F35.0 °F34 %29.92 inSSW (210°)11.5 mph
1:20 PM53.6 °F35.6 °F51 %29.92 in6.2 miSW (230°)12.7 mphMostly Cloudy
1:50 PM55.4 °F37.4 °F51 %29.92 in6.2 miWSW (240°)11.5 mphScattered Clouds
2:00 PM55.0 °F34.0 °F32 %29.91 in47.0 miSW (230°)12.7 mphPartly Cloudy
2:20 PM57.2 °F35.6 °F44 %29.89 in6.2 miSW (230°)10.4 mphScattered Clouds
2:50 PM59.0 °F35.6 °F42 %29.89 in6.2 miSW (220°)15.0 mphScattered Clouds
3:00 PM57.0 °F31.0 °F24 %29.88 inSW (230°)11.5 mph
3:20 PM59.0 °F33.8 °F39 %29.89 in6.2 miSSW (210°)11.5 mphMostly Cloudy
3:50 PM57.2 °F35.6 °F44 %29.89 in6.2 miSSW (210°)12.7 mphMostly Cloudy
4:00 PM58.0 °F33.0 °F26 %29.87 inSW (230°)10.4 mph
4:20 PM59.0 °F33.8 °F39 %29.86 in6.2 miSouth (190°)12.7 mphMostly Cloudy
4:50 PM59.0 °F35.6 °F42 %29.86 in6.2 miSW (230°)11.5 mphMostly Cloudy
5:20 PM59.0 °F33.8 °F39 %29.86 in6.2 miSW (230°)11.5 mphMostly Cloudy
5:50 PM59.0 °F32.0 °F36 %29.86 in6.2 miSSW (210°)12.7 mphMostly Cloudy
6:00 PM59.0 °F31.0 °F22 %29.85 inSW (230°)15.0 mph
6:20 PM59.0 °F32.0 °F36 %29.86 in6.2 miSW (220°)15.0 mphMostly Cloudy
6:50 PM59.0 °F33.8 °F39 %29.86 in6.2 miSSW (210°)11.5 mphMostly Cloudy
7:00 PM58.0 °F32.0 °F25 %29.86 inSW (220°)10.4 mph
7:20 PM59.0 °F33.8 °F39 %29.86 in6.2 miSSW (200°)9.2 mphMostly Cloudy
7:50 PM57.2 °F35.6 °F44 %29.86 in6.2 miSSW (210°)8.1 mphMostly Cloudy
8:00 PM57.0 °F35.0 °F31 %29.85 in47.0 miSSW (210°)8.1 mphScattered Clouds
8:20 PM57.2 °F35.6 °F44 %29.86 in6.2 miSSW (200°)8.1 mphMostly Cloudy
8:50 PM55.4 °F35.6 °F47 %29.86 in6.2 miSouth (190°)6.9 mphMostly Cloudy
9:00 PM56.0 °F35.0 °F32 %29.86 inSSW (200°)8.1 mph
9:20 PM55.4 °F35.6 °F47 %29.86 in6.2 miSSW (200°)8.1 mphMostly Cloudy
9:50 PM55.4 °F35.6 °F47 %29.89 in6.2 miSW (220°)9.2 mphRainLight Rain
10:00 PM56.0 °F35.0 °F34 %29.88 inSW (220°)9.2 mph
10:20 PM55.4 °F39.2 °F54 %29.89 in6.2 miSSW (210°)11.5 mphRainLight Rain
10:50 PM55.4 °F39.2 °F54 %29.89 in6.2 miSSW (210°)13.8 mphRainLight Rain
11:20 PM53.6 °F41.0 °F62 %29.89 in6.2 miSouth (190°)9.2 mphMostly Cloudy
11:50 PM53.6 °F41.0 °F62 %29.89 in6.2 miSSW (210°)12.7 mphRainLight Rain
Hourly data recorded from LSGG, located miles away from Geneva, Switzerland







STORIES FROM OUR PARTNERS